Location: Gadern
(49.5873°N, 8.8138°E)
Time: 00:05:57
(UTC+00:00)

USA 59 Rocket - Pass Details

Date: 19 May 2025
Orbit: 373 x 1696 km, 63.3° (Epoch: 15 June)

Event Time Altitude Azimuth Distance (km) Brightness Sun altitude
Exits shadow 22:10:07 39° 83° (E) 612 -0.1 -18.7°
Drops below altitude 10° 22:12:18 10° 52° (NE) 1,402 2.1 -18.8°
Sets 22:14:15 0° 47° (NE) 2,244 3.3 -18.9°
